Weather History for The Dalles, OR

Change the Weather History Date:

Tuesday, November 6, 2012

  Actual Average Record
Temperature  
Mean Temperature 58 °F -  
Max Temperature 64 °F 53 °F 72 °F (2006)
Min Temperature 52 °F 37 °F 22 °F (1971)
Degree Days  
Heating Degree Days 7    
Growing Degree Days 8 (Base 50)    
Moisture  
Dew Point 51 °F    
Average Humidity 82    
Maximum Humidity 100    
Minimum Humidity 54    
Precipitation  
Precipitation 0.00 in - - ()
Sea Level Pressure  
Sea Level Pressure 30.05 in    
Wind  
Wind Speed 2 mph (NW)    
Max Wind Speed 16 mph    
Max Gust Speed 23 mph    
Visibility 7 miles    
Events Fog    
Averages and records for this station are not official NWS values.
T = Trace of Precipitation, MM = Missing Value Source: NWS Daily Summary

Daily Weather History Graph

Daily Weather History Graph

Search for Another Location

Airport:

Trip Planner

Search our weather history database for the weather conditions in past years. The results will help you decide how hot, cold, wet, or windy it might be!

Date:

Astronomy

Nov. 06, 2012 Rise Set
Actual Time 6:52 AM PST 4:43 PM PST
Civil Twilight 6:20 AM PST 5:15 PM PST
Nautical Twilight 5:45 AM PST 5:50 PM PST
Astronomical Twilight 5:10 AM PST 6:25 PM PST
Moon 11:32 PM PST (11/6) 12:44 PM PST (11/6)
Length of Visible Light 10h 54m
Length of Day
9h 51m
Waning Gibbous, 52% of the Moon is Illuminated
Nov 6
Waning Gibbous
Nov 6
Last Quarter
Nov 13
New
Nov 20
First Quarter
Nov 28
Full

Hourly Weather History & Observations

Time (PST) Temp. Dew Point Humidity Pressure Visibility Wind Dir Wind Speed Gust Speed Precip Events Conditions
12:36 AM 53.6 °F 51.8 °F 94% 30.15 in 1.8 mi Calm Calm - N/A   Overcast
12:49 AM 53.6 °F 53.6 °F 100% 30.15 in 3.0 mi Calm Calm - N/A   Overcast
12:53 AM 54.0 °F 53.1 °F 97% 30.15 in 6.0 mi Calm Calm - N/A   Overcast
1:29 AM 53.6 °F 53.6 °F 100% 30.14 in 0.2 mi Calm Calm - N/A Fog Fog
1:53 AM 54.0 °F 53.1 °F 97% 30.14 in 0.2 mi Calm Calm - N/A Fog Fog
2:53 AM 54.0 °F 52.0 °F 93% 30.12 in 0.2 mi Calm Calm - N/A Fog Fog
3:51 AM 53.6 °F 51.8 °F 94% 30.12 in 1.0 mi Calm Calm - N/A   Overcast
3:53 AM 53.1 °F 52.0 °F 96% 30.12 in 1.0 mi Calm Calm - N/A   Overcast
4:10 AM 53.6 °F 51.8 °F 94% 30.11 in 0.8 mi North 3.5 mph - N/A   Overcast
4:18 AM 53.6 °F 51.8 °F 94% 30.11 in 1.2 mi North 3.5 mph - N/A   Overcast
4:48 AM 53.6 °F 51.8 °F 94% 30.11 in 2.5 mi Calm Calm - N/A   Overcast
4:53 AM 53.1 °F 52.0 °F 96% 30.11 in 3.0 mi NNW 3.5 mph - N/A   Overcast
5:53 AM 52.0 °F 51.1 °F 97% 30.10 in 10.0 mi NNW 4.6 mph - N/A   Overcast
6:53 AM 52.0 °F 50.0 °F 93% 30.09 in 10.0 mi NNW 3.5 mph - N/A   Overcast
7:53 AM 52.0 °F 48.9 °F 89% 30.09 in 10.0 mi NNW 4.6 mph - N/A   Overcast
8:53 AM 53.1 °F 48.9 °F 86% 30.09 in 10.0 mi NW 3.5 mph - N/A   Overcast
9:53 AM 54.0 °F 48.9 °F 83% 30.06 in 10.0 mi Calm Calm - N/A   Overcast
10:12 AM 53.6 °F 48.2 °F 82% 30.06 in 10.0 mi NNW 4.6 mph - N/A   Overcast
10:20 AM 55.4 °F 50.0 °F 82% 30.05 in 10.0 mi NNW 3.5 mph - N/A   Overcast
10:53 AM 57.0 °F 51.1 °F 81% 30.04 in 10.0 mi Calm Calm - N/A   Overcast
11:10 AM 57.2 °F 51.8 °F 82% 30.03 in 10.0 mi Calm Calm - N/A   Overcast
11:53 AM 57.9 °F 51.1 °F 78% 30.01 in 10.0 mi NW 3.5 mph - N/A   Overcast
12:49 PM 59.0 °F 51.8 °F 77% 29.98 in 10.0 mi Calm Calm - N/A   Scattered Clouds
12:53 PM 59.0 °F 51.1 °F 75% 29.99 in 10.0 mi Calm Calm - N/A   Scattered Clouds
1:53 PM 61.0 °F 53.1 °F 75% 29.96 in 10.0 mi Calm Calm - N/A   Clear
2:53 PM 63.0 °F 53.1 °F 70% 29.94 in 10.0 mi Calm Calm - N/A   Clear
3:53 PM 64.9 °F 53.1 °F 65% 29.93 in 10.0 mi NNW 6.9 mph - N/A   Clear
4:53 PM 63.0 °F 46.0 °F 54% 29.92 in 10.0 mi NNW 10.4 mph - N/A   Clear
5:53 PM 61.0 °F 46.9 °F 60% 29.93 in 10.0 mi North 9.2 mph 21.9 mph N/A   Clear
6:53 PM 61.0 °F 46.9 °F 60% 29.94 in 10.0 mi West 8.1 mph - N/A   Clear
7:53 PM 61.0 °F 48.0 °F 62% 29.94 in 10.0 mi WSW 4.6 mph - N/A   Mostly Cloudy
8:53 PM 57.9 °F 50.0 °F 75% 29.96 in 10.0 mi Variable 6.9 mph 17.3 mph N/A   Partly Cloudy
9:53 PM 57.9 °F 50.0 °F 75% 29.97 in 10.0 mi NNW 6.9 mph - N/A   Overcast
10:53 PM 59.0 °F 48.9 °F 69% 29.98 in 10.0 mi WNW 15.0 mph 20.7 mph N/A   Overcast
11:53 PM 57.0 °F 46.0 °F 67% 30.00 in 10.0 mi WNW 16.1 mph 23.0 mph N/A   Overcast